EW2964 Weather Reports


Display with metric or nautical units.
time (UTC)temp
F
wind
direction
speed
MPH
gust
MPH
rain 1hr
in
rain 24hr
in
rain mn
in
humidity
%
barometer
mb
20260506191007 60 316 3.0 12.0 0.00 0.38 0.38 88 1010.2
20260506190508 60 350 6.0 12.0 0.00 0.38 0.38 87 1010.3
20260506190029 60 5 3.0 10.0 0.00 0.38 0.38 89 1010.3
20260506185506 60 315 4.0 11.0 0.00 0.38 0.38 89 1010.3
20260506185009 60 308 6.0 11.0 0.00 0.38 0.38 89 1010.3
20260506184523 60 314 8.0 11.0 0.00 0.38 0.38 88 1010.3
20260506184008 60 310 5.0 11.0 0.00 0.38 0.38 90 1010.2
20260506183508 60 320 7.0 13.0 0.00 0.38 0.38 90 1010.3
20260506183025 60 279 7.0 14.0 0.00 0.38 0.38 89 1010.3
20260506182510 60 338 8.0 16.0 0.00 0.38 0.38 89 1010.3
20260506182015 61 281 8.0 16.0 0.00 0.38 0.38 87 1010.2
20260506181512 61 336 5.0 9.0 0.00 0.38 0.38 87 1010.3
20260506181004 62 336 4.0 10.0 0.00 0.38 0.38 87 1010.2
20260506180505 62 311 4.0 10.0 0.00 0.38 0.38 86 1010.2
20260506180016 63 315 4.0 12.0 0.00 0.38 0.38 85 1010.3
20260506175507 63 254 3.0 14.0 0.00 0.38 0.38 86 1010.2
20260506175008 62 344 9.0 16.0 0.00 0.38 0.38 87 1010.2
20260506174523 62 27 8.0 16.0 0.00 0.38 0.38 85 1010.1
20260506174007 62 310 4.0 13.0 0.00 0.38 0.38 88 1010.2
20260506173508 61 286 4.0 13.0 0.00 0.38 0.38 90 1010.2
20260506173027 61 254 6.0 13.0 0.00 0.38 0.38 89 1010.3
20260506172507 61 341 7.0 13.0 0.00 0.38 0.38 88 1010.2
20260506172010 62 300 3.0 13.0 0.00 0.38 0.38 88 1010.3
20260506171527 63 326 4.0 8.0 0.00 0.38 0.38 87 1010.3
20260506171010 63 298 4.0 12.0 0.00 0.38 0.38 87 1010.3
20260506170513 62 292 6.0 12.0 0.00 0.38 0.38 87 1010.3
20260506170016 62 319 5.0 12.0 0.00 0.38 0.38 87 1010.2
20260506165510 62 215 4.0 13.0 0.00 0.38 0.38 86 1010.3
20260506165007 62 282 4.0 13.0 0.00 0.38 0.38 87 1010.2
20260506164518 62 263 3.0 11.0 0.00 0.38 0.38 86 1010.1
20260506164009 62 236 4.0 15.0 0.00 0.38 0.38 88 1010.2
20260506163507 62 304 8.0 22.0 0.00 0.38 0.38 85 1010.1
20260506163039 62 261 9.0 22.0 0.00 0.38 0.38 84 1010.3
20260506162507 62 290 9.0 19.0 0.00 0.38 0.38 83 1010.1
20260506162014 62 238 7.0 19.0 0.00 0.38 0.38 82 1010.0
20260506161528 62 315 6.0 26.0 0.00 0.38 0.38 82 1010.1
20260506161007 63 260 11.0 26.0 0.00 0.38 0.38 81 1010.2
20260506160509 63 266 11.0 24.0 0.00 0.38 0.38 81 1010.1
20260506160028 63 263 9.0 20.0 0.00 0.38 0.38 81 1009.9
20260506155502 63 228 6.0 20.0 0.00 0.38 0.38 81 1009.8
20260506155002 63 275 9.0 19.0 0.00 0.38 0.38 82 1009.7
20260506154509 63 233 5.0 19.0 0.00 0.38 0.38 82 1009.8
20260506154003 63 293 5.0 24.0 0.00 0.38 0.38 82 1009.7
20260506153503 63 302 7.0 24.0 0.00 0.38 0.38 83 1009.6
20260506153004 63 190 8.0 25.0 0.00 0.38 0.38 82 1009.8
20260506152503 63 269 9.0 25.0 0.00 0.38 0.38 83 1009.8
20260506152006 63 233 7.0 17.0 0.00 0.38 0.38 83 1009.8
20260506151504 63 292 4.0 19.0 0.00 0.38 0.38 83 1009.8
20260506151003 63 329 9.0 19.0 0.00 0.38 0.38 83 1009.6
20260506150504 63 269 9.0 17.0 0.00 0.38 0.38 82 1009.6
20260506150008 63 232 5.0 12.0 0.00 0.38 0.38 82 1009.7
20260506145505 63 209 5.0 12.0 0.00 0.38 0.38 83 1009.5
20260506145005 63 270 5.0 12.0 0.00 0.38 0.38 82 1009.6
20260506144506 63 294 6.0 14.0 0.00 0.38 0.38 83 1009.5
20260506144004 63 263 7.0 15.0 0.00 0.38 0.38 84 1009.4
20260506143507 62 201 7.0 18.0 0.00 0.38 0.38 83 1009.4
20260506143004 62 251 3.0 18.0 0.00 0.38 0.38 84 1009.3
20260506142503 62 200 8.0 18.0 0.00 0.38 0.38 83 1009.4
20260506142004 62 271 5.0 23.0 0.00 0.38 0.38 86 1009.5
20260506141504 61 248 5.0 23.0 0.00 0.38 0.38 87 1009.4
20260506141007 61 182 5.0 19.0 0.00 0.38 0.38 87 1009.3
20260506140504 61 254 7.0 18.0 0.01 0.38 0.38 87 1009.3
20260506140019 60 205 7.0 18.0 0.01 0.38 0.38 87 1009.3
20260506135503 60 286 4.0 15.0 0.01 0.38 0.38 89 1009.3
20260506135006 59 269 7.0 15.0 0.02 0.38 0.38 90 1009.3
20260506134510 58 186 2.0 12.0 0.02 0.38 0.38 93 1009.4
20260506134005 57 244 1.0 7.0 0.03 0.38 0.38 94 1009.5
20260506133503 57 111 1.0 3.0 0.03 0.38 0.38 94 1009.4
20260506133013 57 234 1.0 4.0 0.03 0.38 0.38 93 1009.5
20260506132506 57 42 1.0 5.0 0.03 0.38 0.38 93 1009.5
20260506132003 57 103 0.0 6.0 0.04 0.38 0.38 92 1009.5
20260506131502 56 252 1.0 7.0 0.04 0.38 0.38 92 1009.5
20260506131005 56 209 3.0 7.0 0.06 0.38 0.38 93 1009.5
20260506130510 56 174 3.0 7.0 0.05 0.37 0.37 93 1009.5
20260506130025 56 179 3.0 7.0 0.07 0.37 0.37 93 1009.4
20260506125004 56 185 4.0 8.0 0.08 0.36 0.36 93 1009.5
20260506124528 56 42 3.0 8.0 0.09 0.36 0.36 93 1009.4
20260506124006 56 219 3.0 8.0 0.11 0.35 0.35 93 1009.6
20260506123505 56 182 0.0 9.0 0.12 0.35 0.35 93 1009.7
20260506123012 56 225 3.0 9.0 0.14 0.35 0.35 93 1009.5
20260506122506 56 242 2.0 8.0 0.15 0.35 0.35 93 1009.5
20260506122007 56 349 0.0 5.0 0.14 0.34 0.34 93 1009.4
20260506121515 56 344 0.0 4.0 0.15 0.34 0.34 93 1009.4
20260506121006 56 320 1.0 9.0 0.13 0.32 0.32 93 1009.5
20260506120504 56 328 3.0 12.0 0.14 0.32 0.32 92 1009.3
20260506120003 56 316 5.0 12.0 0.12 0.30 0.30 93 1009.3
20260506115503 56 240 2.0 8.0 0.11 0.29 0.29 93 1009.3
20260506115003 56 329 4.0 8.0 0.11 0.28 0.28 93 1009.2
20260506114508 56 314 1.0 5.0 0.10 0.27 0.27 93 1009.3
20260506114005 56 282 1.0 5.0 0.08 0.24 0.24 93 1009.4
20260506113506 55 308 3.0 7.0 0.08 0.23 0.23 92 1009.3
20260506113014 55 315 3.0 7.0 0.07 0.21 0.21 92 1009.3
20260506112504 55 323 1.0 3.0 0.07 0.20 0.20 93 1009.2
20260506112006 55 284 0.0 3.0 0.08 0.20 0.20 93 1009.3
20260506111526 55 297 0.0 4.0 0.09 0.19 0.19 93 1009.3
20260506111006 55 284 1.0 6.0 0.09 0.19 0.19 92 1009.3
20260506110507 55 324 1.0 6.0 0.10 0.18 0.18 93 1009.2
20260506110026 55 255 2.0 3.0 0.11 0.18 0.18 93 1009.3
20260506105505 55 308 1.0 3.0 0.13 0.18 0.18 93 1009.2
20260506105008 55 213 1.0 3.0 0.14 0.17 0.17 93 1009.2
20260506104517 55 318 0.0 3.0 0.15 0.17 0.17 92 1009.0
20260506104007 55 360 0.0 3.0 0.15 0.16 0.16 92 1009.0
20260506103503 55 360 0.0 3.0 0.15 0.15 0.15 91 1009.0
20260506103011 55 5 0.0 3.0 0.14 0.14 0.14 91 1009.2
20260506102503 55 332 0.0 3.0 0.13 0.13 0.13 90 1009.2
20260506102006 55 352 0.0 3.0 0.12 0.12 0.12 90 1009.2
20260506101517 56 285 1.0 3.0 0.10 0.10 0.10 89 1009.4
20260506101010 56 263 0.0 3.0 0.10 0.10 0.10 89 1009.3
20260506100507 56 305 0.0 3.0 0.08 0.08 0.08 88 1009.5
20260506100031 56 324 1.0 2.0 0.07 0.07 0.07 87 1009.6
20260506095507 56 292 0.0 5.0 0.05 0.05 0.05 87 1009.5
20260506095009 56 329 1.0 6.0 0.03 0.03 0.03 86 1009.5
20260506094524 56 327 1.0 7.0 0.02 0.02 0.02 87 1009.5
20260506094008 55 279 3.0 7.0 0.01 0.01 0.01 87 1009.5
20260506093507 55 309 2.0 4.0 0.00 0.00 0.00 88 1009.5
20260506093021 56 326 1.0 3.0 0.00 0.00 0.00 88 1009.4
20260506092504 56 286 2.0 3.0 0.00 0.00 0.00 87 1009.4
20260506092003 56 257 1.0 3.0 0.00 0.00 0.00 86 1009.4
20260506091510 56 278 1.0 4.0 0.00 0.00 0.00 86 1009.3
20260506091007 56 304 2.0 4.0 0.00 0.00 0.00 85 1009.3
20260506090504 56 325 1.0 3.0 0.00 0.00 0.00 84 1009.2
20260506090017 56 285 1.0 5.0 0.00 0.00 0.00 84 1009.2
20260506085505 56 321 2.0 5.0 0.00 0.00 0.00 82 1009.3
20260506085006 56 333 2.0 5.0 0.00 0.00 0.00 82 1009.3
20260506084533 57 288 2.0 4.0 0.00 0.00 0.00 81 1009.3
20260506084010 57 274 2.0 4.0 0.00 0.00 0.00 81 1009.4
20260506083510 57 296 2.0 4.0 0.00 0.00 0.00 79 1009.3
20260506083027 57 285 2.0 5.0 0.00 0.00 0.00 77 1009.3
20260506082506 58 316 1.0 9.0 0.00 0.00 0.00 75 1009.3
20260506082006 58 283 3.0 9.0 0.00 0.00 0.00 73 1009.3
20260506081521 58 320 2.0 4.0 0.00 0.00 0.00 73 1009.3
20260506081011 58 281 2.0 4.0 0.00 0.00 0.00 72 1009.2
20260506080506 59 296 1.0 3.0 0.00 0.00 0.00 71 1009.3
20260506073509 63 312 3.0 7.0 0.00 0.00 0.00 56 1009.4
20260506073023 63 351 1.0 5.0 0.00 0.00 0.00 55 1009.3
20260506072510 63 229 1.0 4.0 0.00 0.00 0.00 56 1009.3
20260506072007 63 328 2.0 7.0 0.00 0.00 0.00 56 1009.2
20260506071525 63 317 1.0 7.0 0.00 0.00 0.00 56 1009.2
20260506071009 63 319 2.0 9.0 0.00 0.00 0.00 55 1009.2
20260506070507 63 344 2.0 9.0 0.00 0.00 0.00 55 1009.2
20260506062505 64 319 1.0 6.0 0.00 0.00 0.00 51 1009.4
20260506062002 64 300 2.0 6.0 0.00 0.00 0.00 52 1009.4
20260506061508 64 319 2.0 6.0 0.00 0.00 0.00 51 1009.4
20260506061003 65 309 1.0 6.0 0.00 0.00 0.00 52 1009.5
20260506060504 65 316 0.0 6.0 0.00 0.00 0.00 51 1009.4
20260506051002 66 296 2.0 6.0 0.00 0.00 0.00 49 1010.5
20260506050502 66 315 1.0 10.0 0.00 0.00 0.00 49 1010.6
20260506045007 66 61 2.0 6.0 0.00 0.00 0.00 48 1010.7
20260506044515 66 212 2.0 12.0 0.00 0.00 0.00 48 1010.8
20260506044006 66 257 2.0 12.0 0.00 0.00 0.00 48 1010.8
20260506043507 66 263 2.0 10.0 0.00 0.00 0.00 48 1010.8
20260506043003 66 247 3.0 10.0 0.00 0.00 0.00 48 1010.8
20260506042503 66 312 2.0 9.0 0.00 0.00 0.00 48 1010.8
20260506042004 66 90 3.0 8.0 0.00 0.00 0.00 47 1010.8
20260506041504 66 292 4.0 12.0 0.00 0.00 0.00 47 1010.7
20260506041003 66 136 6.0 13.0 0.00 0.00 0.00 47 1010.7
20260506040503 66 154 5.0 13.0 0.00 0.00 0.00 47 1010.6
20260506040008 66 321 3.0 10.0 0.00 0.00 0.00 48 1010.7
20260506035506 66 238 1.0 8.0 0.00 0.00 0.00 48 1010.6
20260506035006 66 320 2.0 9.0 0.00 0.00 0.00 48 1010.5
20260506034511 65 291 3.0 9.0 0.00 0.00 0.00 49 1010.4
20260506034008 64 330 2.0 7.0 0.00 0.00 0.00 50 1010.5
20260506033506 63 286 4.0 7.0 0.00 0.00 0.00 52 1010.6
20260506033018 61 213 0.0 3.0 0.00 0.00 0.00 57 1010.6
20260506032507 61 5 1.0 4.0 0.00 0.00 0.00 60 1010.6
20260506032005 61 253 1.0 4.0 0.00 0.00 0.00 61 1010.7
20260506031521 61 345 2.0 4.0 0.00 0.00 0.00 60 1010.6
20260506031003 61 319 1.0 3.0 0.00 0.00 0.00 57 1010.6
20260506030503 60 322 1.0 3.0 0.00 0.00 0.00 61 1010.7
20260506030005 61 263 1.0 3.0 0.00 0.00 0.00 63 1010.7
20260506025504 61 284 1.0 4.0 0.00 0.00 0.00 61 1010.8
20260506025004 61 319 2.0 4.0 0.00 0.00 0.00 62 1010.8
20260506024510 61 307 1.0 4.0 0.00 0.00 0.00 62 1010.9
20260506024005 61 330 0.0 4.0 0.00 0.00 0.00 64 1011.0
20260506023507 61 331 2.0 4.0 0.00 0.00 0.00 62 1011.1
20260506023014 62 312 0.0 1.0 0.00 0.00 0.00 61 1011.1
20260506022507 62 305 0.0 1.0 0.00 0.00 0.00 62 1011.0
20260506022008 63 296 0.0 1.0 0.00 0.00 0.00 55 1011.1
20260506021516 64 296 0.0 3.0 0.00 0.00 0.00 57 1011.0
20260506021006 64 296 0.0 4.0 0.00 0.00 0.00 54 1011.0
20260506020511 64 261 2.0 4.0 0.00 0.00 0.00 48 1011.0
20260506020023 63 240 1.0 3.0 0.00 0.00 0.00 50 1011.1
20260506015503 63 214 2.0 4.0 0.00 0.00 0.00 54 1011.2
20260506015005 63 237 1.0 4.0 0.00 0.00 0.00 55 1011.3
20260506014507 62 246 1.0 4.0 0.00 0.00 0.00 57 1011.4
20260506014004 62 255 2.0 4.0 0.00 0.00 0.00 55 1011.2
20260506013504 61 275 0.0 4.0 0.00 0.00 0.00 60 1011.2
20260506013028 61 265 1.0 4.0 0.00 0.00 0.00 59 1011.2
20260506012503 61 254 2.0 4.0 0.00 0.00 0.00 60 1011.1
20260506012007 61 294 1.0 4.0 0.00 0.00 0.00 63 1011.1
20260506011524 61 272 1.0 3.0 0.00 0.00 0.00 62 1011.1
20260506011008 62 296 1.0 3.0 0.00 0.00 0.00 63 1011.1
20260506010507 62 260 1.0 3.0 0.00 0.00 0.00 56 1011.1
20260506010025 62 268 0.0 2.0 0.00 0.00 0.00 62 1011.1
20260506005510 63 268 1.0 2.0 0.00 0.00 0.00 59 1011.1
20260506005008 64 293 1.0 2.0 0.00 0.00 0.00 58 1011.0
20260506004523 64 239 0.0 3.0 0.00 0.00 0.00 54 1011.1
20260506004003 64 228 0.0 3.0 0.00 0.00 0.00 53 1011.0
20260506003504 64 254 0.0 3.0 0.00 0.00 0.00 52 1011.0
20260506003008 65 266 0.0 4.0 0.00 0.00 0.00 52 1011.0
20260506002504 65 267 0.0 4.0 0.00 0.00 0.00 50 1010.9
20260506002007 66 261 0.0 3.0 0.00 0.00 0.00 48 1010.8
20260506001511 66 262 0.0 3.0 0.00 0.00 0.00 49 1010.8
20260506001003 66 267 0.0 3.0 0.00 0.00 0.00 48 1010.8
20260506000506 67 266 1.0 3.0 0.00 0.00 0.00 45 1010.9
20260506000015 67 234 1.0 4.0 0.00 0.00 0.00 45 1010.9
20260505235507 68 279 1.0 5.0 0.00 0.00 0.00 44 1010.9
20260505235010 68 331 2.0 6.0 0.00 0.00 0.00 42 1011.0
20260505234522 68 289 2.0 6.0 0.00 0.00 0.00 41 1010.9
20260505234007 68 283 2.0 5.0 0.00 0.00 0.00 41 1010.7
20260505233506 69 294 1.0 4.0 0.00 0.00 0.00 41 1010.7
20260505233027 69 306 2.0 8.0 0.00 0.00 0.00 39 1010.7
20260505232509 70 302 2.0 8.0 0.00 0.00 0.00 39 1010.7
20260505232007 70 284 1.0 8.0 0.00 0.00 0.00 38 1010.6
20260505231512 71 301 3.0 9.0 0.00 0.00 0.00 36 1010.4
20260505231004 71 298 3.0 11.0 0.00 0.00 0.00 35 1010.4
20260505230504 72 296 5.0 11.0 0.00 0.00 0.00 36 1010.3
20260505230013 72 311 3.0 12.0 0.00 0.00 0.00 37 1010.2
20260505225504 72 321 6.0 12.0 0.00 0.00 0.00 34 1010.2
20260505225007 72 313 6.0 10.0 0.00 0.00 0.00 35 1010.2
20260505224527 72 309 5.0 11.0 0.00 0.00 0.00 35 1010.3
20260505224008 72 300 6.0 12.0 0.00 0.00 0.00 35 1010.4
20260505223506 73 267 8.0 12.0 0.00 0.00 0.00 33 1010.5
20260505223021 73 301 4.0 11.0 0.00 0.00 0.00 36 1010.6
20260505222510 73 296 5.0 12.0 0.00 0.00 0.00 35 1010.7
20260505222008 73 316 4.0 14.0 0.00 0.00 0.00 35 1010.9
20260505221526 73 306 7.0 14.0 0.00 0.00 0.00 36 1010.8
20260505221013 73 263 8.0 16.0 0.00 0.00 0.00 33 1010.8
20260505220502 73 240 7.0 16.0 0.00 0.00 0.00 33 1010.9
20260505220027 73 286 5.0 12.0 0.00 0.00 0.00 34 1010.9
20260505215506 73 302 5.0 12.0 0.00 0.00 0.00 35 1010.9
20260505215006 73 304 5.0 15.0 0.00 0.00 0.00 34 1010.8
20260505214521 73 332 8.0 15.0 0.00 0.00 0.00 33 1010.7
20260505214007 74 271 7.0 15.0 0.00 0.00 0.00 32 1010.7
20260505213506 74 328 3.0 12.0 0.00 0.00 0.00 31 1010.9
20260505213024 74 360 3.0 15.0 0.00 0.00 0.00 32 1010.7
20260505212510 74 292 9.0 15.0 0.00 0.00 0.00 32 1010.8
20260505212010 75 275 8.0 16.0 0.00 0.00 0.00 30 1010.7
20260505211503 75 284 5.0 20.0 0.00 0.00 0.00 29 1010.8
20260505211003 75 287 10.0 20.0 0.00 0.00 0.00 29 1010.8
20260505210502 75 236 6.0 16.0 0.00 0.00 0.00 32 1010.8
20260505210008 75 331 7.0 16.0 0.00 0.00 0.00 30 1010.7
20260505205506 75 294 6.0 13.0 0.00 0.00 0.00 30 1010.6
20260505205005 75 286 6.0 13.0 0.00 0.00 0.00 31 1010.7
20260505204514 74 326 2.0 14.0 0.00 0.00 0.00 32 1010.7
20260505204008 74 265 8.0 15.0 0.00 0.00 0.00 31 1010.7
20260505203507 74 315 8.0 20.0 0.00 0.00 0.00 33 1010.7
20260505203020 74 300 7.0 20.0 0.00 0.00 0.00 35 1010.7
20260505202507 74 300 8.0 20.0 0.00 0.00 0.00 34 1010.8
20260505202010 74 240 3.0 14.0 0.00 0.00 0.00 36 1010.9
20260505201523 74 332 6.0 16.0 0.00 0.00 0.00 35 1010.8
20260505201010 74 295 10.0 19.0 0.00 0.00 0.00 34 1010.8
20260505200510 74 242 8.0 19.0 0.00 0.00 0.00 33 1010.9
20260505200014 74 295 4.0 17.0 0.00 0.00 0.00 33 1010.9
20260505195503 74 275 9.0 18.0 0.00 0.00 0.00 34 1010.8
20260505195008 74 275 9.0 20.0 0.00 0.00 0.00 33 1011.0
20260505194514 74 315 9.0 20.0 0.00 0.00 0.00 34 1010.9
20260505194007 74 319 4.0 17.0 0.00 0.00 0.00 35 1011.0
20260505193507 74 298 5.0 13.0 0.00 0.00 0.00 37 1011.1
20260505193016 74 321 7.0 15.0 0.00 0.00 0.00 34 1011.0
20260505192507 73 198 7.0 15.0 0.00 0.00 0.00 35 1011.2
20260505192007 73 323 8.0 16.0 0.00 0.00 0.00 36 1011.2
20260505191528 74 332 10.0 18.0 0.00 0.00 0.00 35 1011.3